Home   Weather   Wellton   Past weeks
Flag for USA

Past Weather in Wellton, Arizona, USA — Yesterday and Last 2 Weeks

Now
54 °F

Clear.


Feels Like: 52 °F
Forecast: 74 / 50 °F
Wind: 7 mph from Northwest

Location: Yuma Marine Corps Air Station

Current Time: Feb 23, 2020 at 6:08:52 am

Latest Report: Feb 23, 2020 at 4:57 am


Visibility: 10 mi

Pressure: 30.09 "Hg

Humidity: 59%

Dew Point: 40 °F

Location of WelltonLocation

Past Weather in Wellton — Graph

°F

Wellton Temperature Yesterday

Maximum temperature yesterday: 71 °F (at 1:57 pm)
Minimum temperature yesterday: 57 °F (at 11:57 pm)
Average temperature yesterday: 63 °F

High & Low Weather Summary for the Past Weeks

 TemperatureHumidityPressure
High80 °F (Feb 19, 2:57 pm)97% (Feb 11, 12:57 am)30.15 "Hg (Feb 11, 12:57 am)
Low41 °F (Feb 12, 3:57 am)11% (Feb 18, 2:57 pm)29.72 "Hg (Feb 9, 3:57 pm)
Average61 °F46%29.97 "Hg
* Reported Feb 8 4:57 am — Feb 23 4:57 am, Wellton. Weather by CustomWeather, © 2020

Note: Actual official high and low records may vary slightly from our data, if they occured in-between our weather recording intervals... More about our weather records

Wellton Weather History for the Previous 24 Hours

Scroll right to see more
 ConditionsComfort  
Time TempWeatherWind HumidityBarometerVisibility
4:57 am
Sun, Feb 23
54 °FClear.7 mph59%30.09 "Hg10 mi
3:57 am54 °FClear.3 mph59%30.07 "Hg10 mi
2:57 am54 °FClear.7 mph62%30.07 "Hg10 mi
1:57 am55 °FClear.8 mph59%30.07 "Hg10 mi
12:57 am56 °FClear.9 mph55%30.06 "Hg10 mi
11:57 pm
Sat, Feb 22
57 °FClear.7 mph55%30.05 "Hg10 mi
10:57 pm58 °FClear.15 mph54%30.04 "Hg10 mi
9:57 pm59 °FClear.16 mph49%30.03 "Hg10 mi
8:57 pm60 °FClear.20 mph46%30.01 "Hg10 mi
7:57 pm61 °FPassing clouds.15 mph48%30.01 "Hg10 mi
6:57 pm63 °FOvercast.13 mph43%29.99 "Hg10 mi
5:57 pm65 °FScattered clouds.15 mph39%29.96 "Hg10 mi
4:57 pm68 °FBroken clouds.14 mph36%29.94 "Hg10 mi
3:57 pm71 °FPassing clouds.10 mph32%29.91 "Hg10 mi
2:57 pm69 °FOvercast.7 mph41%29.92 "Hg10 mi
1:57 pm71 °FSunny.13 mph36%29.93 "Hg10 mi
12:57 pm70 °FPassing clouds.12 mph37%29.95 "Hg10 mi
11:57 am69 °FSunny.12 mph42%29.96 "Hg10 mi
10:57 am63 °FBroken clouds.3 mph73%29.98 "Hg10 mi
9:57 am62 °FPartly sunny.6 mph80%29.97 "Hg10 mi
8:57 am60 °FOvercast.3 mph86%29.97 "Hg10 mi
7:57 am61 °FMore clouds than sun.No wind87%29.95 "Hg10 mi
6:57 am60 °FMostly cloudy.6 mph90%29.93 "Hg10 mi
6:10 am60 °FMostly cloudy.5 mph86%29.94 "Hg10 mi
Weather by CustomWeather, © 2020

See weather overview

Advertising